QPF
0.04 0.03 0.03 0.03 0.04 0.05 0.07 0.07 0.07 0.08 0.09 0.08 0.06 0.05 0.04 0.05 0.07 0.06 0.07 0.09 0.08 0.07 0.07 0.08 0.07 0.05 0.03 0.02 0.02 0.03 0.03 0.02 0.02 0.02 0.01 0.01 0.01 0.01 0.02 0.02 0.02 0.02 0.02
0.05 0.04 0.04 0.03 0.04 0.06 0.06 0.08 0.09 0.05 0.06 0.09 0.08 0.06 0.05 0.05 0.07 0.07 0.06 0.07 0.08 0.06 0.06 0.07 0.07 0.06 0.04 0.03 0.03 0.03 0.03 0.03 0.03 0.02 0.02 0.01 0.02 0.02 0.02 0.02 0.03 0.02 0.02
0.04 0.05 0.04 0.03 0.04 0.04 0.06 0.09 0.08 0.04 0.04 0.05 0.07 0.07 0.06 0.05 0.06 0.07 0.06 0.06 0.06 0.05 0.05 0.05 0.06 0.06 0.04 0.03 0.03 0.04 0.04 0.04 0.04 0.03 0.03 0.02 0.02 0.03 0.03 0.03 0.03 0.03 0.02
0.03 0.04 0.04 0.03 0.03 0.04 0.05 0.06 0.07 0.06 0.05 0.03 0.04 0.05 0.05 0.06 0.07 0.07 0.06 0.05 0.05 0.04 0.04 0.04 0.04 0.05 0.04 0.03 0.04 0.04 0.03 0.04 0.05 0.05 0.05 0.04 0.03 0.03 0.03 0.04 0.04 0.03 0.03
0.03 0.03 0.03 0.03 0.02 0.03 0.04 0.03 0.04 0.04 0.04 0.03 0.04 0.04 0.04 0.05 0.07 0.07 0.07 0.06 0.05 0.04 0.04 0.04 0.04 0.04 0.03 0.03 0.04 0.03 0.03 0.04 0.05 0.05 0.05 0.05 0.04 0.03 0.03 0.03 0.03 0.03 0.04
0.02 0.02 0.02 0.02 0.02 0.02 0.02 0.01 0.01 0.03 0.04 0.03 0.03 0.03 0.03 0.04 0.05 0.05 0.06 0.07 0.06 0.05 0.05 0.05 0.05 0.04 0.04 0.04 0.04 0.04 0.04 0.04 0.05 0.05 0.04 0.04 0.03 0.02 0.02 0.03 0.04 0.05 0.05
0.02 0.02 0.02 0.02 0.01 0.01 0.01 0.01 0.01 0.01 0.02 0.03 0.03 0.03 0.03 0.03 0.04 0.04 0.05 0.06 0.06 0.05 0.04 0.05 0.05 0.05 0.05 0.05 0.06 0.06 0.06 0.05 0.05 0.04 0.04 0.04 0.03 0.03 0.03 0.04 0.04 0.05 0.04
0.02 0.02 0.02 0.02 0.02 0.02 0.02 0.02 0.02 0.02 0.02 0.03 0.03 0.03 0.03 0.03 0.04 0.04 0.04 0.05 0.05 0.05 0.04 0.04 0.04 0.05 0.05 0.06 0.06 0.06 0.06 0.06 0.05 0.04 0.04 0.04 0.03 0.03 0.03 0.04 0.04 0.05 0.05
0.03 0.02 0.02 0.02 0.02 0.02 0.02 0.02 0.03 0.03 0.03 0.03 0.03 0.03 0.03 0.03 0.03 0.02 0.03 0.04 0.05 0.04 0.04 0.03 0.03 0.04 0.05 0.06 0.05 0.05 0.05 0.05 0.05 0.04 0.04 0.04 0.04 0.04 0.03 0.04 0.04 0.05 0.05
0.03 0.03 0.03 0.03 0.02 0.02 0.02 0.02 0.02 0.03 0.03 0.03 0.03 0.03 0.03 0.03 0.03 0.02 0.02 0.03 0.04 0.04 0.04 0.04 0.04 0.04 0.05 0.05 0.05 0.05 0.05 0.04 0.04 0.04 0.05 0.05 0.04 0.04 0.04 0.03 0.03 0.03 0.03
0.03 0.04 0.04 0.03 0.03 0.03 0.03 0.03 0.02 0.02 0.02 0.02 0.03 0.04 0.04 0.04 0.04 0.03 0.03 0.03 0.03 0.04 0.04 0.04 0.04 0.04 0.04 0.05 0.05 0.04 0.04 0.03 0.03 0.03 0.04 0.04 0.04 0.04 0.04 0.03 0.03 0.03 0.03
0.03 0.03 0.03 0.03 0.03 0.03 0.02 0.03 0.02 0.02 0.02 0.02 0.02 0.03 0.04 0.04 0.04 0.04 0.04 0.03 0.03 0.03 0.03 0.03 0.03 0.03 0.04 0.04 0.04 0.04 0.04 0.05 0.04 0.04 0.04 0.03 0.03 0.03 0.03 0.03 0.03 0.03 0.03
0.05 0.04 0.04 0.03 0.03 0.03 0.03 0.03 0.03 0.02 0.02 0.02 0.02 0.02 0.03 0.04 0.04 0.03 0.03 0.03 0.03 0.02 0.02 0.03 0.04 0.04 0.04 0.04 0.03 0.03 0.03 0.03 0.04 0.04 0.03 0.03 0.02 0.02 0.02 0.03 0.03 0.03 0.04
0.06 0.05 0.04 0.03 0.03 0.04 0.03 0.03 0.03 0.02 0.02 0.02 0.02 0.02 0.02 0.03 0.03 0.03 0.03 0.03 0.02 0.02 0.02 0.03 0.04 0.05 0.04 0.03 0.03 0.02 0.02 0.02 0.03 0.03 0.03 0.02 0.03 0.03 0.03 0.04 0.04 0.03 0.04
0.07 0.06 0.05 0.03 0.03 0.03 0.03 0.03 0.02 0.02 0.02 0.02 0.01 0.01 0.02 0.02 0.02 0.02 0.02 0.02 0.02 0.02 0.03 0.03 0.04 0.05 0.04 0.03 0.02 0.02 0.02 0.03 0.03 0.03 0.03 0.03 0.03 0.03 0.03 0.04 0.04 0.05 0.04
0.08 0.07 0.06 0.04 0.03 0.02 0.03 0.02 0.02 0.03 0.03 0.03 0.02 0.02 0.02 0.02 0.02 0.02 0.02 0.02 0.03 0.03 0.04 0.04 0.04 0.04 0.03 0.03 0.02 0.02 0.02 0.03 0.02 0.02 0.03 0.03 0.03 0.03 0.03 0.03 0.04 0.05 0.05
0.08 0.07 0.06 0.05 0.03 0.02 0.02 0.02 0.02 0.02 0.02 0.03 0.03 0.03 0.03 0.03 0.03 0.03 0.03 0.03 0.03 0.03 0.03 0.03 0.03 0.02 0.02 0.02 0.02 0.02 0.02 0.02 0.02 0.02 0.02 0.02 0.02 0.02 0.03 0.03 0.04 0.04 0.04
0.07 0.06 0.06 0.05 0.03 0.02 0.02 0.02 0.02 0.01 0.01 0.02 0.02 0.02 0.03 0.03 0.03 0.03 0.03 0.04 0.03 0.03 0.02 0.02 0.02 0.02 0.02 0.02 0.02 0.02 0.02 0.02 0.02 0.03 0.03 0.02 0.02 0.03 0.03 0.03 0.03 0.03 0.04
0.07 0.06 0.05 0.05 0.04 0.04 0.03 0.03 0.02 0.02 0.02 0.02 0.02 0.02 0.03 0.03 0.03 0.03 0.03 0.02 0.02 0.01 0.01 0.02 0.02 0.02 0.02 0.02 0.02 0.01 0.01 0.01 0.01 0.02 0.02 0.03 0.03 0.03 0.03 0.03 0.03 0.03 0.04
0.07 0.08 0.06 0.04 0.04 0.03 0.03 0.03 0.03 0.03 0.03 0.03 0.03 0.03 0.03 0.03 0.04 0.03 0.02 0.02 0.02 0.02 0.02 0.02 0.02 0.02 0.02 0.01 0.01 0.01 0.01 0.02 0.02 0.02 0.02 0.02 0.03 0.03 0.03 0.03 0.04 0.04 0.04
0.05 0.06 0.06 0.04 0.04 0.04 0.03 0.03 0.04 0.03 0.03 0.03 0.03 0.03 0.03 0.02 0.03 0.03 0.02 0.02 0.02 0.02 0.02 0.02 0.02 0.02 0.02 0.01 0.01 0.01 0.01 0.02 0.02 0.02 0.03 0.03 0.03 0.03 0.04 0.04 0.04 0.04 0.04
0.03 0.04 0.05 0.05 0.04 0.04 0.04 0.04 0.04 0.04 0.03 0.03 0.03 0.04 0.04 0.03 0.03 0.03 0.03 0.02 0.02 0.02 0.02 0.02 0.02 0.02 0.02 0.02 0.02 0.02 0.02 0.02 0.02 0.02 0.02 0.03 0.03 0.03 0.03 0.04 0.04 0.04 0.04
0.03 0.03 0.04 0.05 0.05 0.05 0.04 0.04 0.03 0.03 0.03 0.03 0.03 0.03 0.03 0.04 0.03 0.03 0.03 0.03 0.02 0.03 0.03 0.03 0.03 0.03 0.03 0.03 0.02 0.03 0.03 0.03 0.02 0.02 0.02 0.03 0.03 0.03 0.03 0.03 0.03 0.04 0.04
0.02 0.03 0.03 0.03 0.04 0.04 0.04 0.04 0.04 0.03 0.03 0.03 0.03 0.03 0.03 0.03 0.04 0.04 0.04 0.04 0.03 0.04 0.04 0.04 0.04 0.04 0.04 0.04 0.04 0.03 0.03 0.03 0.03 0.03 0.03 0.03 0.03 0.03 0.03 0.03 0.03 0.04 0.04
0.02 0.02 0.02 0.03 0.03 0.04 0.04 0.04 0.04 0.04 0.03 0.03 0.03 0.03 0.03 0.03 0.03 0.03 0.03 0.03 0.03 0.03 0.03 0.03 0.03 0.03 0.04 0.04 0.04 0.05 0.05 0.05 0.05 0.05 0.05 0.05 0.04 0.03 0.03 0.03 0.04 0.04 0.04
0.02 0.02 0.02 0.02 0.02 0.03 0.03 0.04 0.04 0.04 0.04 0.03 0.03 0.03 0.03 0.03 0.03 0.02 0.02 0.02 0.02 0.03 0.03 0.03 0.03 0.03 0.03 0.04 0.04 0.04 0.05 0.05 0.05 0.06 0.06 0.06 0.05 0.05 0.04 0.04 0.04 0.05 0.05
MSLP
1012.59 1014.00 1015.40 1016.75 1018.02 1019.19 1020.27 1021.26 1022.19 1023.05 1023.88 1024.68 1025.48 1026.28 1027.09 1027.91 1028.72 1029.51 1030.25 1030.92 1031.50 1032.00 1032.42 1032.78 1033.12 1033.46 1033.84 1034.29 1034.81 1035.40 1036.03 1036.69 1037.33 1037.92 1038.43 1038.85 1039.18 1039.41 1039.57 1039.67 1039.73 1039.76 1039.78
1012.08 1013.43 1014.83 1016.22 1017.55 1018.79 1019.93 1020.97 1021.91 1022.77 1023.58 1024.36 1025.13 1025.91 1026.72 1027.55 1028.39 1029.23 1030.03 1030.76 1031.42 1031.99 1032.46 1032.87 1033.23 1033.59 1033.96 1034.39 1034.88 1035.44 1036.04 1036.67 1037.29 1037.87 1038.40 1038.84 1039.20 1039.49 1039.71 1039.87 1040.00 1040.09 1040.16
1011.75 1012.99 1014.33 1015.72 1017.09 1018.38 1019.57 1020.65 1021.62 1022.48 1023.28 1024.02 1024.76 1025.51 1026.29 1027.11 1027.96 1028.83 1029.67 1030.47 1031.20 1031.84 1032.39 1032.85 1033.27 1033.66 1034.05 1034.48 1034.95 1035.48 1036.05 1036.65 1037.24 1037.81 1038.33 1038.79 1039.17 1039.49 1039.76 1039.99 1040.18 1040.35 1040.49
1011.64 1012.71 1013.95 1015.28 1016.64 1017.96 1019.20 1020.32 1021.31 1022.19 1022.97 1023.69 1024.38 1025.09 1025.83 1026.63 1027.47 1028.34 1029.22 1030.07 1030.87 1031.58 1032.20 1032.74 1033.22 1033.66 1034.08 1034.52 1035.00 1035.51 1036.06 1036.63 1037.20 1037.74 1038.25 1038.70 1039.10 1039.45 1039.76 1040.05 1040.31 1040.55 1040.77
1011.71 1012.57 1013.66 1014.90 1016.22 1017.55 1018.81 1019.96 1020.98 1021.88 1022.65 1023.35 1024.01 1024.67 1025.37 1026.13 1026.96 1027.83 1028.73 1029.62 1030.48 1031.26 1031.96 1032.57 1033.11 1033.60 1034.07 1034.53 1035.01 1035.52 1036.06 1036.61 1037.15 1037.68 1038.18 1038.63 1039.04 1039.41 1039.76 1040.10 1040.42 1040.74 1041.04
1011.87 1012.50 1013.41 1014.54 1015.80 1017.11 1018.38 1019.57 1020.63 1021.54 1022.33 1023.02 1023.65 1024.28 1024.95 1025.68 1026.48 1027.35 1028.26 1029.18 1030.08 1030.92 1031.69 1032.37 1032.97 1033.52 1034.03 1034.52 1035.02 1035.53 1036.06 1036.60 1037.14 1037.66 1038.15 1038.61 1039.03 1039.43 1039.81 1040.19 1040.57 1040.95 1041.32
1012.00 1012.40 1013.14 1014.15 1015.34 1016.63 1017.92 1019.14 1020.24 1021.19 1022.00 1022.70 1023.33 1023.94 1024.57 1025.27 1026.06 1026.92 1027.84 1028.78 1029.72 1030.61 1031.43 1032.17 1032.83 1033.43 1033.97 1034.50 1035.02 1035.55 1036.09 1036.64 1037.18 1037.71 1038.21 1038.68 1039.12 1039.54 1039.95 1040.36 1040.77 1041.20 1041.62
1011.99 1012.20 1012.78 1013.68 1014.82 1016.10 1017.41 1018.68 1019.83 1020.83 1021.68 1022.40 1023.03 1023.64 1024.26 1024.95 1025.72 1026.57 1027.49 1028.46 1029.42 1030.35 1031.21 1032.00 1032.71 1033.34 1033.93 1034.49 1035.04 1035.60 1036.17 1036.74 1037.31 1037.85 1038.38 1038.87 1039.33 1039.77 1040.20 1040.63 1041.06 1041.51 1041.96
1011.79 1011.85 1012.32 1013.15 1014.26 1015.54 1016.88 1018.20 1019.40 1020.46 1021.36 1022.12 1022.77 1023.38 1024.01 1024.69 1025.45 1026.30 1027.23 1028.20 1029.19 1030.14 1031.04 1031.86 1032.61 1033.28 1033.91 1034.51 1035.09 1035.69 1036.29 1036.90 1037.51 1038.10 1038.66 1039.18 1039.67 1040.13 1040.57 1041.01 1041.44 1041.89 1042.34
1011.41 1011.38 1011.79 1012.58 1013.68 1014.98 1016.37 1017.73 1018.99 1020.11 1021.06 1021.85 1022.53 1023.16 1023.79 1024.47 1025.23 1026.08 1027.01 1028.00 1029.00 1029.97 1030.89 1031.74 1032.52 1033.24 1033.90 1034.54 1035.17 1035.81 1036.46 1037.13 1037.78 1038.42 1039.03 1039.59 1040.11 1040.59 1041.04 1041.47 1041.90 1042.33 1042.76
1010.96 1010.89 1011.27 1012.05 1013.16 1014.48 1015.90 1017.30 1018.61 1019.76 1020.75 1021.58 1022.29 1022.93 1023.58 1024.27 1025.03 1025.88 1026.82 1027.81 1028.82 1029.81 1030.76 1031.64 1032.45 1033.20 1033.90 1034.58 1035.26 1035.96 1036.66 1037.38 1038.10 1038.79 1039.45 1040.05 1040.60 1041.10 1041.56 1041.99 1042.40 1042.80 1043.21
1010.57 1010.49 1010.87 1011.65 1012.76 1014.08 1015.50 1016.92 1018.24 1019.42 1020.43 1021.28 1022.01 1022.67 1023.33 1024.03 1024.80 1025.67 1026.61 1027.61 1028.64 1029.65 1030.62 1031.52 1032.37 1033.16 1033.90 1034.63 1035.36 1036.10 1036.87 1037.64 1038.41 1039.16 1039.87 1040.52 1041.10 1041.62 1042.08 1042.51 1042.91 1043.30 1043.68
1010.38 1010.31 1010.68 1011.44 1012.52 1013.82 1015.21 1016.60 1017.90 1019.06 1020.07 1020.92 1021.66 1022.33 1023.01 1023.72 1024.52 1025.40 1026.36 1027.38 1028.43 1029.46 1030.46 1031.40 1032.28 1033.11 1033.90 1034.67 1035.45 1036.24 1037.05 1037.87 1038.69 1039.49 1040.24 1040.92 1041.54 1042.08 1042.57 1043.00 1043.41 1043.79 1044.16
1010.49 1010.42 1010.76 1011.48 1012.49 1013.70 1015.01 1016.33 1017.56 1018.68 1019.64 1020.48 1021.22 1021.91 1022.60 1023.34 1024.16 1025.07 1026.06 1027.11 1028.18 1029.25 1030.28 1031.26 1032.18 1033.05 1033.88 1034.69 1035.51 1036.35 1037.20 1038.05 1038.91 1039.74 1040.52 1041.25 1041.89 1042.47 1042.98 1043.44 1043.86 1044.25 1044.64
1010.96 1010.86 1011.13 1011.75 1012.64 1013.73 1014.90 1016.09 1017.22 1018.25 1019.16 1019.97 1020.70 1021.40 1022.12 1022.89 1023.75 1024.69 1025.72 1026.81 1027.92 1029.02 1030.09 1031.11 1032.08 1032.98 1033.85 1034.71 1035.56 1036.42 1037.29 1038.17 1039.05 1039.90 1040.71 1041.46 1042.14 1042.75 1043.30 1043.79 1044.24 1044.67 1045.08
1011.74 1011.58 1011.75 1012.23 1012.96 1013.87 1014.88 1015.90 1016.90 1017.82 1018.66 1019.43 1020.15 1020.86 1021.61 1022.42 1023.32 1024.31 1025.39 1026.51 1027.67 1028.81 1029.92 1030.98 1031.97 1032.92 1033.82 1034.70 1035.57 1036.44 1037.33 1038.22 1039.11 1039.97 1040.80 1041.57 1042.28 1042.93 1043.52 1044.05 1044.55 1045.02 1045.47
1012.75 1012.51 1012.56 1012.87 1013.41 1014.12 1014.93 1015.78 1016.63 1017.44 1018.21 1018.93 1019.65 1020.38 1021.16 1022.02 1022.96 1024.00 1025.11 1026.27 1027.46 1028.63 1029.77 1030.86 1031.89 1032.86 1033.78 1034.67 1035.56 1036.44 1037.32 1038.21 1039.09 1039.96 1040.80 1041.59 1042.32 1043.01 1043.64 1044.23 1044.78 1045.30 1045.79
1013.89 1013.56 1013.47 1013.62 1013.97 1014.49 1015.11 1015.79 1016.50 1017.20 1017.90 1018.59 1019.30 1020.05 1020.86 1021.76 1022.74 1023.81 1024.95 1026.13 1027.33 1028.52 1029.68 1030.78 1031.82 1032.80 1033.73 1034.63 1035.51 1036.39 1037.26 1038.14 1039.02 1039.88 1040.72 1041.53 1042.29 1043.01 1043.69 1044.32 1044.92 1045.48 1046.01
1015.07 1014.66 1014.46 1014.46 1014.65 1015.00 1015.45 1015.99 1016.58 1017.20 1017.84 1018.51 1019.21 1019.97 1020.80 1021.72 1022.72 1023.80 1024.94 1026.12 1027.32 1028.50 1029.64 1030.73 1031.76 1032.74 1033.67 1034.56 1035.43 1036.30 1037.16 1038.03 1038.90 1039.76 1040.60 1041.42 1042.20 1042.95 1043.67 1044.34 1044.97 1045.57 1046.12
1016.23 1015.78 1015.51 1015.41 1015.47 1015.69 1016.02 1016.45 1016.95 1017.50 1018.10 1018.75 1019.45 1020.21 1021.04 1021.96 1022.95 1024.01 1025.12 1026.27 1027.42 1028.56 1029.67 1030.72 1031.73 1032.68 1033.59 1034.46 1035.32 1036.17 1037.02 1037.87 1038.73 1039.59 1040.44 1041.27 1042.07 1042.84 1043.58 1044.29 1044.95 1045.56 1046.13
1017.39 1016.93 1016.62 1016.47 1016.46 1016.60 1016.85 1017.21 1017.65 1018.15 1018.72 1019.34 1020.02 1020.77 1021.59 1022.47 1023.42 1024.43 1025.48 1026.55 1027.64 1028.70 1029.74 1030.74 1031.69 1032.60 1033.48 1034.33 1035.17 1036.00 1036.84 1037.68 1038.53 1039.39 1040.24 1041.08 1041.90 1042.69 1043.45 1044.17 1044.85 1045.48 1046.04
1018.55 1018.13 1017.83 1017.66 1017.63 1017.73 1017.94 1018.26 1018.65 1019.13 1019.66 1020.25 1020.90 1021.61 1022.38 1023.20 1024.08 1025.00 1025.96 1026.94 1027.93 1028.90 1029.85 1030.77 1031.66 1032.52 1033.35 1034.17 1034.98 1035.80 1036.62 1037.46 1038.31 1039.16 1040.02 1040.86 1041.69 1042.50 1043.27 1044.00 1044.68 1045.31 1045.88
1019.76 1019.39 1019.13 1018.98 1018.96 1019.04 1019.24 1019.53 1019.90 1020.33 1020.83 1021.38 1021.98 1022.63 1023.33 1024.07 1024.85 1025.68 1026.52 1027.39 1028.26 1029.13 1029.98 1030.82 1031.63 1032.43 1033.21 1034.00 1034.78 1035.57 1036.38 1037.21 1038.06 1038.91 1039.77 1040.62 1041.46 1042.27 1043.05 1043.78 1044.46 1045.09 1045.65
1021.02 1020.72 1020.51 1020.39 1020.38 1020.47 1020.64 1020.91 1021.24 1021.64 1022.09 1022.59 1023.12 1023.70 1024.31 1024.96 1025.64 1026.35 1027.08 1027.83 1028.59 1029.35 1030.11 1030.86 1031.60 1032.34 1033.07 1033.81 1034.57 1035.34 1036.14 1036.96 1037.80 1038.65 1039.51 1040.37 1041.21 1042.02 1042.80 1043.53 1044.20 1044.82 1045.37
1022.32 1022.07 1021.90 1021.81 1021.80 1021.88 1022.04 1022.27 1022.57 1022.91 1023.30 1023.73 1024.19 1024.69 1025.21 1025.77 1026.35 1026.95 1027.58 1028.23 1028.88 1029.55 1030.22 1030.89 1031.57 1032.25 1032.94 1033.65 1034.37 1035.12 1035.90 1036.70 1037.53 1038.38 1039.24 1040.09 1040.93 1041.74 1042.51 1043.23 1043.90 1044.50 1045.04
1023.60 1023.39 1023.24 1023.16 1023.14 1023.20 1023.32 1023.51 1023.75 1024.03 1024.35 1024.71 1025.10 1025.51 1025.95 1026.42 1026.92 1027.44 1027.98 1028.55 1029.13 1029.72 1030.32 1030.93 1031.55 1032.18 1032.83 1033.50 1034.19 1034.91 1035.67 1036.45 1037.27 1038.10 1038.95 1039.79 1040.62 1041.42 1042.18 1042.89 1043.55 1044.13 1044.66
Thickness
5461 5462 5462 5462 5461 5462 5463 5464 5464 5465 5466 5466 5467 5467 5468 5468 5467 5467 5467 5468 5469 5469 5468 5469 5469 5468 5468 5468 5467 5466 5465 5465 5463 5463 5463 5462 5461 5460 5460 5460 5460 5459 5459
5449 5450 5450 5450 5450 5451 5451 5452 5453 5454 5455 5455 5456 5456 5456 5456 5456 5457 5457 5457 5458 5459 5459 5459 5458 5458 5457 5456 5456 5455 5454 5454 5452 5450 5449 5449 5448 5448 5447 5447 5447 5447 5447
5437 5437 5437 5438 5438 5438 5439 5440 5442 5443 5443 5443 5444 5444 5444 5445 5446 5446 5447 5447 5448 5449 5449 5449 5449 5447 5446 5446 5445 5444 5443 5442 5440 5438 5437 5436 5435 5435 5434 5433 5433 5434 5434
5424 5424 5424 5425 5426 5427 5427 5428 5429 5430 5430 5431 5432 5433 5433 5433 5434 5435 5436 5437 5438 5438 5438 5438 5438 5437 5437 5435 5434 5432 5431 5429 5427 5426 5424 5422 5421 5421 5420 5419 5419 5419 5421
5413 5412 5412 5412 5413 5414 5415 5415 5416 5417 5417 5418 5420 5420 5421 5422 5424 5425 5425 5426 5426 5427 5427 5427 5426 5426 5425 5424 5423 5422 5419 5417 5415 5413 5412 5410 5409 5407 5407 5407 5406 5406 5407
5401 5401 5400 5400 5400 5401 5402 5402 5402 5403 5404 5405 5407 5408 5409 5411 5413 5415 5415 5414 5415 5415 5415 5415 5414 5413 5413 5413 5412 5411 5409 5407 5405 5403 5402 5401 5400 5398 5396 5395 5393 5392 5393
5389 5389 5388 5388 5388 5388 5389 5389 5390 5391 5392 5393 5394 5396 5399 5400 5402 5404 5403 5403 5404 5404 5403 5403 5403 5402 5401 5400 5399 5398 5397 5396 5395 5394 5392 5392 5390 5388 5385 5382 5381 5381 5383
5376 5376 5376 5376 5375 5375 5376 5377 5378 5379 5380 5381 5383 5384 5386 5388 5389 5391 5392 5391 5391 5392 5392 5392 5391 5390 5389 5387 5386 5385 5384 5383 5383 5382 5382 5382 5379 5377 5375 5373 5371 5370 5370
5364 5363 5363 5363 5363 5363 5363 5364 5365 5367 5368 5369 5370 5371 5372 5374 5376 5378 5379 5379 5379 5379 5380 5380 5379 5378 5377 5375 5373 5372 5372 5371 5370 5369 5369 5368 5366 5364 5362 5359 5357 5356 5358
5352 5352 5351 5351 5351 5351 5351 5352 5352 5353 5354 5355 5357 5358 5359 5361 5363 5365 5367 5367 5366 5367 5367 5367 5367 5367 5365 5364 5362 5360 5359 5358 5357 5356 5355 5355 5353 5352 5350 5349 5348 5346 5346
5340 5340 5339 5339 5339 5339 5339 5339 5339 5340 5341 5342 5343 5345 5346 5348 5350 5352 5353 5353 5353 5353 5355 5355 5354 5354 5354 5353 5351 5349 5348 5346 5344 5344 5343 5342 5340 5339 5338 5337 5336 5336 5336
5328 5328 5327 5327 5327 5327 5327 5326 5327 5327 5327 5328 5329 5331 5333 5334 5336 5338 5339 5340 5340 5341 5341 5342 5341 5341 5341 5340 5339 5338 5336 5334 5332 5331 5330 5329 5328 5327 5326 5324 5324 5324 5324
5316 5315 5315 5315 5315 5315 5315 5315 5314 5314 5315 5316 5317 5319 5320 5322 5322 5324 5326 5327 5327 5328 5328 5329 5328 5328 5328 5327 5327 5326 5324 5322 5320 5319 5319 5318 5316 5315 5313 5312 5311 5311 5310
5303 5304 5304 5304 5303 5303 5304 5304 5304 5303 5303 5304 5305 5306 5307 5309 5309 5311 5312 5312 5313 5314 5314 5315 5315 5315 5315 5315 5314 5313 5311 5310 5308 5307 5306 5305 5303 5301 5300 5299 5298 5298 5297
5291 5292 5293 5294 5292 5292 5292 5292 5292 5293 5293 5293 5294 5294 5296 5297 5299 5300 5300 5301 5300 5300 5301 5301 5300 5301 5301 5301 5300 5299 5299 5297 5296 5294 5293 5292 5290 5289 5287 5286 5285 5285 5284
5280 5281 5282 5282 5281 5281 5280 5280 5280 5281 5282 5283 5284 5284 5285 5287 5287 5288 5288 5289 5289 5288 5288 5288 5288 5289 5288 5288 5287 5286 5285 5284 5283 5282 5281 5279 5278 5276 5274 5273 5272 5272 5272
5268 5268 5270 5270 5270 5269 5269 5269 5269 5269 5270 5271 5272 5273 5274 5275 5276 5276 5276 5276 5276 5276 5275 5276 5276 5276 5275 5274 5274 5273 5272 5271 5270 5269 5268 5266 5265 5263 5261 5260 5259 5259 5259
5255 5256 5257 5257 5257 5257 5257 5257 5258 5258 5258 5259 5260 5261 5262 5263 5263 5264 5263 5263 5262 5262 5261 5261 5262 5262 5261 5260 5260 5259 5259 5258 5257 5256 5255 5253 5252 5250 5248 5247 5246 5246 5247
5243 5243 5244 5245 5245 5245 5245 5245 5245 5245 5246 5247 5247 5248 5250 5250 5250 5250 5250 5249 5249 5249 5248 5248 5248 5248 5248 5247 5247 5246 5245 5245 5245 5243 5242 5240 5239 5237 5236 5235 5234 5234 5234
5230 5232 5233 5233 5233 5232 5232 5232 5232 5232 5233 5233 5234 5235 5236 5236 5236 5236 5236 5235 5235 5235 5235 5235 5235 5234 5234 5234 5233 5233 5232 5233 5232 5231 5229 5228 5227 5225 5224 5223 5223 5222 5223
5218 5218 5220 5220 5219 5219 5219 5219 5219 5219 5219 5220 5220 5222 5224 5225 5224 5223 5223 5223 5222 5222 5222 5222 5222 5222 5221 5221 5220 5220 5220 5220 5220 5219 5218 5216 5215 5213 5212 5211 5211 5210 5211
5205 5205 5206 5206 5206 5206 5206 5206 5206 5206 5207 5207 5207 5208 5210 5210 5210 5210 5209 5210 5209 5209 5209 5209 5209 5209 5209 5209 5209 5209 5209 5209 5209 5207 5206 5205 5204 5202 5201 5199 5199 5198 5198
5192 5192 5192 5192 5192 5193 5193 5192 5192 5192 5192 5193 5194 5195 5195 5195 5195 5195 5196 5196 5196 5196 5196 5197 5197 5198 5198 5197 5198 5198 5198 5199 5199 5197 5196 5194 5193 5191 5190 5188 5187 5187 5188
5178 5179 5179 5179 5178 5178 5178 5178 5178 5179 5179 5179 5180 5180 5181 5181 5182 5182 5182 5183 5184 5185 5185 5186 5186 5187 5187 5187 5187 5187 5188 5188 5187 5187 5186 5184 5183 5181 5179 5178 5177 5177 5177
5165 5165 5165 5165 5165 5165 5165 5165 5165 5165 5165 5166 5166 5167 5167 5168 5169 5170 5170 5172 5173 5174 5175 5175 5176 5177 5177 5177 5177 5178 5178 5178 5178 5177 5176 5174 5173 5171 5170 5168 5168 5167 5167
5153 5152 5152 5152 5152 5152 5152 5152 5152 5152 5152 5152 5153 5154 5155 5156 5157 5158 5159 5161 5162 5163 5164 5166 5167 5167 5168 5168 5168 5169 5169 5169 5168 5168 5166 5165 5164 5163 5161 5160 5159 5159 5159